ATLAS AGENA B DEB, 631

Orbit data source: Space-Track

ATLAS AGENA B DEB, 631 is space debris in LEO originally from a launch on Fri, 19 Jul 1963 UTC launched from the Air Force Western Test Range (AFWTR). Debris objects in space refer to the collection of defunct objects orbiting the Earth. Examples of debris include non-operational satellites, rocket bodies, and fragments generated from explosions, collisions, or faulty payload assembly.

Loading next visibility...
Identifier
631, 1963-030E
Orbit
LEO
Country
Flag of USUS
Related business
Manufacturer
Unknown
Mission
Spacecraft
Bus & Motor
Unknown
Mass
~10 kg wet, ~10 kg dry
Launch date (UTC)
1963-07-19 (63 years ago)
Launch vehicle
Unknown
Launch site
Air Force Western Test Range (AFWTR)
Object type
Payload
Rocket body
Debris
Shape & HBR
Unknown
Radar Cross Section
Medium (>0.1 m² and <1 m²)

Expand to show TLE details & history
Last TLE update: 2 days ago

TLE from 2 days ago
0 ATLAS AGENA B DEB
1 00631U 63030E   26034.90007370  .00000002  00000-0  00000-0 0  9995
2 00631  88.4175 224.5443 0161417 218.7777 140.1393  8.55876053954239
Epoch: 2026-02-03T21:36Z
TLE epoch observation values (Epoch: 2026-02-03T21:36:06.367Z)
Latitude
-0.00006°
Longitude
126.44339°
Altitude
3,845.704 km
Speed
6.206 km/s
True Right ascension
14h 58m 10s
True Declination
0° 00' 00"
Sunlit
Object was in daylight at epoch
Visualization orbit readout
Latitude
Unknown
Longitude
Unknown
Altitude
Unknown
Speed
Unknown
Apparent Right ascension
Unknown
Apparent Declination
Unknown
Sunlit
N/A
Visualization observer readout
Local Sidereal Time
00:07:08
Azimuth
Unknown
Elevation
Unknown
Doppler factor
Unknown
Orbital elements
Apogee altitude
3,878.118 km
Perigee altitude
3,552.271 km
Semi-major axis
10,093.332 km
Eccentricity
0.01614
Inclination
88.4175°
RAAN
224.5443°
Arg. of periapsis
218.7777°
True anomaly
141.30664°
Mean anomaly
140.1393°
Eccentric anomaly
140.72477°
Mean motion
2.14038 °/min
Orbital period
168.19 mins
BSTAR
0
Loading maneuver chart data...
Computing Atmospheric mass density...
Loading historical data...
Loading historical data...
Loading historical data...
Loading historical data...
Loading historical data...
Loading historical data...
Loading historical data...

Documentation

Showing up to 5 results
|